This demonstration page uses our WeatherBlox Daily Observations layout. Learn more.

Left ArrowRight Arrow

39.01783, -85.05884

Hourly Observations for August 4, 2017

Temp ( °F °C ) Dew Point ( °F °C ) Humidity (%) Winds ( mph kmh ) Pressure ( in mb ) Visibility ( mi km ) Precip ( " mm )
12:52 am 00:52 Mostly Cloudy 70 21.1 69 20.6 97 97 S 8 13 29.93 1014 10 16 0.00 0.00
1:52 am 01:52 Partly Cloudy 71 21.7 69 20.6 94 94 S 8 13 29.92 1013 10 16 0.00 0.00
2:52 am 02:52 Mostly Cloudy 70 21.1 69 20.6 97 97 S 8 13 29.92 1013 10 16 0.00 0.00
3:52 am 03:52 Mostly Cloudy 71 21.7 69 20.6 94 94 S 10 17 29.91 1013 10 16 0.00 0.00
4:52 am 04:52 Mostly Cloudy 72 22.2 69 20.6 91 91 SSW 9 15 29.90 1012 10 16 0.00 0.00
5:52 am 05:52 Mostly Cloudy 70 21.1 69 20.6 97 97 SSW 8 13 29.89 1012 10 16 0.00 0.00
6:52 am 06:52 Mostly Cloudy 70 21.1 69 20.6 97 97 SSW 10 17 29.88 1012 10 16 0.00 0.00
7:52 am 07:52 Cloudy with Nearby Thunderstorms 71 21.7 69 20.6 94 94 SSW 6 9 29.90 1012 10 16 0.00 0.00
8:12 am 08:12 Mostly Cloudy 72 22.2 69 20.6 91 91 SSW 10 17 29.91 1013 10 16 0.00 0.00
8:49 am 08:49 Cloudy 72 22 70 21 94 94 SSW 10 17 29.91 1013 10 16 0.00 0.00
8:52 am 08:52 Cloudy 72 22.2 69 20.6 91 91 SW 9 15 29.91 1013 10 16 0.00 0.00
9:24 am 09:24 Cloudy 73 22.8 70 21.1 90 90 SSW 10 17 29.91 1013 10 16 0.00 0.00
9:52 am 09:52 Cloudy 73 22.8 70 21.1 90 90 SW 13 20 29.90 1013 10 16 0.00 0.00
10:15 am 10:15 Cloudy 73 22.8 70 21.1 90 90 SW 12 19 29.91 1013 9 14 0.00 0.00
10:52 am 10:52 Cloudy 73 22.8 70 21.1 90 90 WSW 12 19 29.91 1013 8 13 0.00 0.00
11:52 am 11:52 Cloudy 74 23.3 71 21.7 91 91 SW 12 19 29.91 1013 8 13 0.00 0.03
12:06 pm 12:06 Cloudy with Light Rain 73 22.8 71 21.7 94 94 SW 9 15 29.91 1013 7 11 0.00 0.03
12:30 pm 12:30 Cloudy 71 21.7 66 18.9 84 84 W 14 22 29.91 1013 10 16 0.00 0.03
12:52 pm 12:52 Mostly Cloudy 74 23.3 66 18.9 76 76 W 15 24 29.91 1013 10 16 0.00 0.03
1:52 pm 13:52 Mostly Cloudy 77 25 67 19.4 71 71 W 12 19 29.89 1012 10 16 0.00 0.00
2:52 pm 14:52 Mostly Cloudy 78 25.6 62 16.7 58 58 W 14 22 29.88 1012 10 16 0.00 0.00
3:52 pm 15:52 Mostly Sunny 77 25 56 13.3 48 48 WSW 20 31 29.89 1012 10 16 0.00 0.00
4:52 pm 16:52 Mostly Sunny 76 24.4 55 12.8 48 48 W 15 24 29.90 1013 10 16 0.00 0.00
5:52 pm 17:52 Partly Cloudy 75 23.9 56 13.3 52 52 WNW 20 31 29.91 1013 10 16 0.00 0.00
6:52 pm 18:52 Partly Cloudy 71 21.7 55 12.8 57 57 WNW 21 33 29.93 1014 10 16 0.00 0.00
7:52 pm 19:52 Partly Cloudy 69 20.6 55 12.8 61 61 NW 20 31 29.96 1015 10 16 0.00 0.00
8:52 pm 20:52 Cloudy 66 18.9 53 11.7 63 63 WNW 20 31 29.99 1016 10 16 0.00 0.00
9:52 pm 21:52 Cloudy 64 17.8 53 11.7 68 68 WNW 13 20 30.02 1017 10 16 0.00 0.00
10:52 pm 22:52 Mostly Cloudy 62 16.7 53 11.7 73 73 W 7 11 30.03 1017 10 16 0.00 0.00
11:52 pm 23:52 Clear 59 15 53 11.7 81 81 W 7 11 30.03 1017 10 16 0.00 0.00

Powered by AerisWeather